�N����,����,�~����,�C��,���x,�C��,����,���ϕ���,�ő�u�ԕ���,�ő厞����,���˗�,�I�_���x,�n�����x,�ő啗���N��,DTYPE
"21/05/04","00:10",0.0,10.7,82.0,1014.2,323.1,1.6,2.8,332.9,0.00,7.8,130.0,"00:08:32",1
"21/05/04","00:20",0.0,10.6,82.4,1014.2,293.9,1.7,3.2,305.4,0.00,7.8,130.0,"00:17:44",1
"21/05/04","00:30",0.0,10.6,82.6,1014.5,293.3,1.7,2.9,317.2,0.00,7.8,130.0,"00:24:08",1
"21/05/04","00:40",0.0,10.6,82.9,1014.2,294.5,1.7,2.4,304.3,0.00,7.9,130.0,"00:31:20",1
"21/05/04","00:50",0.0,10.5,83.0,1014.0,296.0,1.6,2.4,314.3,0.00,7.8,130.0,"00:40:16",1
"21/05/04","01:00",0.0,10.5,83.1,1014.0,293.3,1.6,1.9,303.5,0.00,7.8,130.0,"00:52:24",1
"21/05/04","01:10",0.0,10.3,83.3,1014.5,323.4,1.3,2.1,322.6,0.00,7.6,130.0,"01:09:36",1
"21/05/04","01:20",0.0,9.8,83.6,1014.2,320.9,1.6,2.1,320.4,0.00,7.2,130.0,"01:10:56",1
"21/05/04","01:30",0.0,9.5,84.5,1014.0,319.3,1.7,2.6,323.4,0.00,7.1,130.0,"01:24:40",1
"21/05/04","01:40",0.0,9.2,85.4,1014.2,320.4,1.7,2.2,324.7,0.00,6.9,130.0,"01:34:08",1
"21/05/04","01:50",0.0,8.9,85.8,1013.8,288.6,1.2,1.6,306.1,0.00,6.7,130.0,"01:45:44",1
"21/05/04","02:00",0.0,8.9,86.5,1013.8,291.6,1.0,1.8,314.1,0.00,6.8,130.0,"01:56:24",1
"21/05/04","02:10",0.0,8.9,87.1,1013.8,309.2,1.6,2.4,322.4,0.00,6.9,130.0,"02:00:02",1
"21/05/04","02:20",0.0,8.9,87.5,1014.0,314.1,1.5,2.2,323.1,0.00,7.0,130.0,"02:10:08",1
"21/05/04","02:30",0.0,8.6,87.9,1014.0,289.6,1.1,1.8,318.1,0.00,6.8,130.0,"02:29:04",1
"21/05/04","02:40",0.0,8.7,88.4,1013.8,308.7,1.1,2.0,323.5,0.00,6.9,130.0,"02:36:32",1
"21/05/04","02:50",0.0,8.7,88.8,1014.0,312.2,1.7,2.2,323.2,0.00,7.0,130.0,"02:46:56",1
"21/05/04","03:00",0.0,8.7,89.2,1013.8,291.6,1.6,2.0,308.5,0.00,7.1,130.0,"02:54:24",1
"21/05/04","03:10",0.0,8.6,89.6,1013.5,311.1,1.7,2.1,322.6,0.00,7.0,130.0,"03:09:28",1
"21/05/04","03:20",0.0,8.5,90.0,1013.5,315.8,1.7,2.1,316.5,0.00,7.0,130.0,"03:16:00",1
"21/05/04","03:30",0.0,8.4,90.4,1013.5,312.7,1.3,2.4,323.3,0.00,7.0,130.0,"03:29:36",1
"21/05/04","03:40",0.0,8.2,90.7,1013.5,314.8,1.7,2.4,322.8,0.00,6.8,130.0,"03:32:32",1
"21/05/04","03:50",0.0,8.2,91.0,1013.5,306.8,1.6,1.9,316.4,0.00,6.9,130.0,"03:41:44",1
"21/05/04","04:00",0.0,8.2,91.3,1013.8,302.4,1.5,1.9,308.3,0.00,6.9,130.0,"03:58:24",1
"21/05/04","04:10",0.0,8.2,91.5,1013.8,309.6,1.5,1.9,302.8,0.00,6.9,130.0,"04:09:20",1
"21/05/04","04:20",0.0,8.2,91.7,1013.8,287.4,1.3,2.0,310.9,0.00,7.0,130.0,"04:19:28",1
"21/05/04","04:30",0.0,8.2,91.8,1014.0,315.4,1.6,2.4,321.9,0.00,7.0,130.0,"04:28:00",1
"21/05/04","04:40",0.0,8.1,92.0,1014.0,312.3,1.5,2.4,323.3,0.00,6.9,130.0,"04:30:02",1
"21/05/04","04:50",0.0,7.9,92.3,1014.5,321.4,1.7,2.5,319.8,0.00,6.8,130.0,"04:41:04",1
"21/05/04","05:00",0.0,7.6,92.4,1014.2,288.0,0.7,1.4,306.7,0.00,6.5,130.0,"04:50:48",1
"21/05/04","05:10",0.0,7.6,92.8,1014.2,304.3,1.3,2.5,323.2,0.00,6.6,130.0,"05:09:44",1
"21/05/04","05:20",0.0,7.6,92.9,1014.5,323.1,2.1,2.6,329.4,0.00,6.6,130.0,"05:11:36",1
"21/05/04","05:30",0.0,7.7,93.1,1014.7,301.5,1.3,1.8,311.4,0.00,6.7,130.0,"05:27:12",1
"21/05/04","05:40",0.0,8.0,93.3,1014.9,316.8,1.5,2.2,324.3,0.00,7.0,130.0,"05:35:44",1
"21/05/04","05:50",0.0,8.3,93.4,1015.2,322.7,1.3,2.0,325.2,0.00,7.3,130.0,"05:40:56",1
"21/05/04","06:00",0.0,8.4,93.5,1015.2,284.8,1.2,1.7,274.5,0.01,7.5,130.0,"05:53:52",1
"21/05/04","06:10",0.0,8.7,93.7,1014.9,319.5,1.8,2.6,320.2,0.02,7.8,130.0,"06:00:02",1
"21/05/04","06:20",0.0,9.1,93.7,1015.2,314.9,2.3,2.7,315.7,0.03,8.2,130.0,"06:10:48",1
"21/05/04","06:30",0.0,9.6,93.8,1015.4,285.1,0.6,1.7,316.5,0.04,8.7,130.0,"06:20:16",1
"21/05/04","06:40",0.0,10.3,93.8,1015.6,296.9,0.6,1.3,310.6,0.05,9.4,130.0,"06:35:44",1
"21/05/04","06:50",0.0,11.0,93.7,1015.4,265.3,0.3,1.1,289.7,0.05,10.1,130.0,"06:42:32",1
"21/05/04","07:00",0.0,11.4,93.8,1015.9,260.9,0.2,0.8,318.0,0.08,10.5,130.0,"06:57:44",1
"21/05/04","07:10",0.0,11.9,93.2,1016.1,263.5,0.3,0.8,291.4,0.11,10.9,130.0,"07:00:56",1
"21/05/04","07:20",0.0,12.9,92.4,1016.4,300.1,0.6,1.0,288.8,0.13,11.7,130.0,"07:15:44",1
"21/05/04","07:30",0.0,13.7,92.6,1016.4,316.1,0.6,1.4,321.8,0.14,12.6,130.0,"07:29:28",1
"21/05/04","07:40",0.0,13.7,91.1,1017.1,293.5,0.5,1.2,303.8,0.15,12.3,130.0,"07:35:04",1
"21/05/04","07:50",0.0,14.1,91.1,1017.1,251.8,0.3,1.0,261.9,0.17,12.7,130.0,"07:49:20",1
"21/05/04","08:00",0.0,14.0,88.2,1016.6,261.8,0.7,1.1,290.8,0.22,12.1,130.0,"07:54:56",1
"21/05/04","08:10",0.0,15.2,86.5,1016.6,282.4,0.5,1.1,280.2,0.25,13.0,130.0,"08:00:56",1
"21/05/04","08:20",0.0,16.1,82.5,1016.6,265.3,0.3,1.1,218.8,0.27,13.2,130.0,"08:13:04",1
"21/05/04","08:30",0.0,16.7,76.6,1016.6,18.8,0.5,1.3,28.5,0.29,12.6,130.0,"08:21:12",1
"21/05/04","08:40",0.0,17.2,70.0,1016.1,234.4,0.5,1.6,23.3,0.31,11.7,130.0,"08:38:40",1
"21/05/04","08:50",0.0,17.6,66.4,1016.1,176.4,0.7,2.1,134.4,0.33,11.3,130.0,"08:49:04",1
"21/05/04","09:00",0.0,17.9,63.7,1015.9,127.6,0.8,2.0,212.6,0.37,11.0,130.0,"08:53:44",1
"21/05/04","09:10",0.0,18.4,61.9,1015.4,134.0,1.0,2.2,132.0,0.38,11.0,130.0,"09:05:12",1
"21/05/04","09:20",0.0,18.6,62.1,1015.2,171.2,1.1,2.6,115.5,0.40,11.2,130.0,"09:18:24",1
"21/05/04","09:30",0.0,18.8,60.4,1015.2,165.0,1.1,2.2,170.0,0.44,11.0,130.0,"09:27:20",1
"21/05/04","09:40",0.0,19.2,60.1,1015.2,165.2,1.1,2.9,128.9,0.46,11.3,130.0,"09:38:16",1
"21/05/04","09:50",0.0,19.3,59.1,1014.9,180.5,1.2,2.9,226.4,0.49,11.2,130.0,"09:49:36",1
"21/05/04","10:00",0.0,19.3,59.4,1014.7,186.9,1.6,3.4,190.3,0.50,11.2,130.0,"09:52:48",1
"21/05/04","10:10",0.0,19.6,57.6,1014.5,164.7,1.6,3.1,170.8,0.52,11.1,130.0,"10:08:40",1
"21/05/04","10:20",0.0,20.2,57.4,1014.7,139.1,1.5,4.5,129.0,0.54,11.6,130.0,"10:15:04",1
"21/05/04","10:30",0.0,20.6,56.0,1014.2,153.6,1.2,3.5,139.4,0.55,11.6,130.0,"10:29:44",1
"21/05/04","10:40",0.0,20.7,55.3,1013.8,142.8,1.7,4.7,196.1,0.55,11.5,130.0,"10:38:00",1
"21/05/04","10:50",0.0,21.4,55.8,1014.2,194.9,1.5,4.2,135.6,0.58,12.3,130.0,"10:40:16",1
"21/05/04","11:00",0.0,21.2,53.6,1013.5,197.3,2.0,4.7,186.9,0.56,11.5,130.0,"10:55:20",1
"21/05/04","11:10",0.0,21.3,53.1,1013.0,148.3,2.3,4.9,152.0,0.58,11.4,130.0,"11:09:20",1
"21/05/04","11:20",0.0,21.5,53.9,1013.8,168.0,2.1,4.5,158.7,0.58,11.8,130.0,"11:10:32",1
"21/05/04","11:30",0.0,21.9,50.9,1013.3,123.6,1.2,4.0,102.2,0.58,11.3,130.0,"11:24:24",1
"21/05/04","11:40",0.0,22.3,51.8,1013.3,164.8,2.0,3.9,194.9,0.60,12.0,130.0,"11:31:52",1
"21/05/04","11:50",0.0,22.5,48.3,1012.8,104.8,1.1,3.1,101.1,0.54,11.1,130.0,"11:40:16",1
"21/05/04","12:00",0.0,22.6,48.2,1012.6,114.0,2.0,4.0,131.6,0.59,11.1,130.0,"11:59:44",1
"21/05/04","12:10",0.0,23.0,46.4,1012.1,138.5,1.5,4.0,180.3,0.60,10.9,130.0,"12:01:12",1
"21/05/04","12:20",0.0,23.5,46.0,1011.9,129.7,2.2,4.1,133.1,0.58,11.3,130.0,"12:18:40",1
"21/05/04","12:30",0.0,23.2,45.2,1011.9,156.5,2.2,5.4,218.0,0.57,10.7,130.0,"12:28:40",1
"21/05/04","12:40",0.0,23.9,44.1,1011.4,148.6,1.7,6.4,199.2,0.59,11.0,130.0,"12:30:16",1
"21/05/04","12:50",0.0,23.8,41.6,1011.2,121.7,2.0,4.3,84.2,0.58,10.0,130.0,"12:44:00",1
"21/05/04","13:00",0.0,24.1,42.3,1011.2,144.7,2.5,4.9,178.5,0.57,10.5,130.0,"12:58:32",1
"21/05/04","13:10",0.0,24.2,40.3,1010.9,187.6,2.6,4.7,232.9,0.59,9.9,130.0,"13:02:08",1
"21/05/04","13:20",0.0,24.7,38.5,1011.2,171.0,2.5,5.0,156.5,0.60,9.7,130.0,"13:17:04",1
"21/05/04","13:30",0.0,24.5,35.6,1010.7,159.3,3.5,6.5,133.3,0.55,8.3,130.0,"13:26:16",1
"21/05/04","13:40",0.0,24.4,34.9,1010.9,166.5,3.1,5.4,152.2,0.48,8.0,130.0,"13:33:52",1
"21/05/04","13:50",0.0,24.5,32.3,1010.7,178.0,3.4,5.1,175.9,0.50,6.9,130.0,"13:47:28",1
"21/05/04","14:00",0.0,24.7,32.4,1010.7,184.5,3.4,5.9,199.2,0.52,7.1,130.0,"13:53:44",1
"21/05/04","14:10",0.0,24.8,27.7,1010.9,202.5,3.2,6.7,211.9,0.49,5.0,130.0,"14:06:00",1
"21/05/04","14:20",0.0,25.0,24.8,1010.4,220.9,2.5,7.0,228.8,0.50,3.6,130.0,"14:15:20",1
"21/05/04","14:30",0.0,25.3,23.3,1010.9,209.6,2.7,5.8,216.2,0.47,2.9,130.0,"14:29:36",1
"21/05/04","14:40",0.0,25.6,22.2,1010.7,242.4,1.8,5.0,221.8,0.49,2.5,130.0,"14:37:20",1
"21/05/04","14:50",0.0,26.0,21.9,1010.2,263.3,1.8,3.9,303.4,0.48,2.6,130.0,"14:46:40",1
"21/05/04","15:00",0.0,26.5,23.5,1010.2,220.8,2.3,4.9,223.4,0.47,4.0,130.0,"14:53:12",1
"21/05/04","15:10",0.0,26.0,27.6,1010.4,214.0,2.7,4.7,209.5,0.45,5.9,130.0,"15:09:04",1
"21/05/04","15:20",0.0,25.0,30.3,1010.4,204.5,3.1,5.5,190.8,0.37,6.4,130.0,"15:10:40",1
"21/05/04","15:30",0.0,24.6,37.6,1010.4,213.0,3.6,6.8,167.0,0.35,9.2,130.0,"15:24:24",1
"21/05/04","15:40",0.0,24.8,41.4,1010.2,219.6,2.5,5.4,233.2,0.34,10.9,130.0,"15:39:52",1
"21/05/04","15:50",0.0,24.6,41.4,1010.7,233.0,2.0,4.2,207.0,0.26,10.7,130.0,"15:41:52",1
"21/05/04","16:00",0.0,23.3,41.2,1010.4,269.1,2.6,5.0,320.9,0.17,9.4,130.0,"15:55:36",1
"21/05/04","16:10",0.0,23.1,41.6,1010.9,253.2,2.5,5.6,236.2,0.18,9.4,130.0,"16:05:18",1
"21/05/04","16:20",0.0,22.9,39.5,1010.9,263.5,2.7,5.5,236.6,0.15,8.5,130.0,"16:16:16",1
"21/05/04","16:30",0.0,22.6,39.5,1011.2,250.5,2.7,6.4,246.4,0.12,8.2,130.0,"16:22:32",1
"21/05/04","16:40",0.0,22.5,41.8,1011.4,259.3,2.2,6.0,233.3,0.10,8.9,130.0,"16:32:40",1
"21/05/04","16:50",0.0,22.2,42.9,1011.4,290.4,2.3,4.7,319.8,0.08,9.0,130.0,"16:46:32",1
"21/05/04","17:00",0.0,21.9,44.7,1011.2,295.3,2.5,5.4,302.8,0.06,9.4,130.0,"16:55:44",1
"21/05/04","17:10",0.0,21.6,45.1,1011.4,289.0,2.6,5.4,320.6,0.05,9.2,130.0,"17:01:44",1
"21/05/04","17:20",0.0,21.6,46.4,1011.4,271.6,2.2,5.0,248.6,0.05,9.7,130.0,"17:11:28",1
"21/05/04","17:30",0.0,21.4,48.7,1011.6,275.0,2.1,5.6,352.4,0.04,10.2,130.0,"17:29:44",1
"21/05/04","17:40",0.0,21.1,50.6,1011.9,266.0,1.5,4.3,327.9,0.04,10.5,130.0,"17:35:36",1
"21/05/04","17:50",0.0,21.0,51.5,1011.6,312.6,1.1,3.2,320.2,0.03,10.7,130.0,"17:42:08",1
"21/05/04","18:00",0.0,20.9,52.6,1011.9,331.6,1.2,2.6,326.5,0.02,10.9,130.0,"17:50:02",1
"21/05/04","18:10",0.0,20.8,51.5,1011.6,341.4,0.7,2.7,329.3,0.02,10.5,130.0,"18:00:16",1
"21/05/04","18:20",0.0,20.6,52.2,1011.6,335.8,1.7,2.9,341.0,0.01,10.5,130.0,"18:18:48",1
"21/05/04","18:30",0.0,20.3,50.3,1011.6,329.1,1.5,3.2,338.1,0.00,9.7,130.0,"18:26:24",1
"21/05/04","18:40",0.0,20.2,49.1,1011.2,1.6,0.7,3.1,70.2,0.00,9.2,130.0,"18:38:32",1
"21/05/04","18:50",0.0,20.1,48.6,1011.6,294.5,1.1,3.2,346.5,0.00,9.0,130.0,"18:49:28",1
"21/05/04","19:00",0.0,20.0,48.6,1011.6,282.1,1.1,2.2,294.1,0.00,8.9,130.0,"18:52:48",1
"21/05/04","19:10",0.0,19.9,48.8,1011.9,301.9,1.7,4.0,328.0,0.00,8.9,130.0,"19:07:28",1
"21/05/04","19:20",0.0,19.9,48.6,1011.9,305.9,1.5,2.9,326.2,0.00,8.8,130.0,"19:11:20",1
"21/05/04","19:30",0.0,19.6,50.3,1011.9,325.6,1.8,3.3,345.3,0.00,9.0,130.0,"19:25:28",1
"21/05/04","19:40",0.0,19.3,50.8,1012.3,313.2,1.7,3.1,340.9,0.00,8.9,130.0,"19:30:08",1
"21/05/04","19:50",0.0,19.2,49.4,1012.3,312.8,1.5,2.6,336.3,0.00,8.4,130.0,"19:40:48",1
"21/05/04","20:00",0.0,19.2,51.8,1012.3,313.1,1.3,2.7,341.1,0.00,9.1,130.0,"19:51:12",1
"21/05/04","20:10",0.0,18.6,54.1,1012.1,295.0,0.5,0.9,327.3,0.00,9.2,130.0,"20:02:56",1
"21/05/04","20:20",0.0,18.1,57.5,1013.0,302.2,1.2,2.1,328.2,0.00,9.6,130.0,"20:14:16",1
"21/05/04","20:30",0.0,17.6,59.3,1012.8,275.2,0.8,1.4,273.3,0.00,9.6,130.0,"20:29:28",1
"21/05/04","20:40",0.0,17.5,60.9,1012.6,326.4,1.2,1.8,326.3,0.00,9.9,130.0,"20:35:52",1
"21/05/04","20:50",0.0,16.9,63.6,1012.6,334.5,1.3,2.7,316.4,0.00,10.0,130.0,"20:41:20",1
"21/05/04","21:00",0.0,16.5,65.0,1012.6,298.7,1.2,1.7,304.6,0.00,9.9,130.0,"20:51:52",1
"21/05/04","21:10",0.0,16.2,65.4,1012.3,302.2,0.8,1.6,307.2,0.00,9.8,130.0,"21:04:00",1
"21/05/04","21:20",0.0,16.3,66.2,1012.8,337.3,1.0,1.7,329.2,0.00,10.0,130.0,"21:19:52",1
"21/05/04","21:30",0.0,15.9,66.8,1012.8,345.5,1.5,3.1,45.2,0.00,9.8,130.0,"21:25:44",1
"21/05/04","21:40",0.0,16.1,65.3,1013.0,315.3,0.6,1.3,11.7,0.00,9.6,130.0,"21:30:08",1
"21/05/04","21:50",0.0,16.1,64.1,1013.0,309.7,0.6,1.4,304.5,0.00,9.4,130.0,"21:49:44",1
"21/05/04","22:00",0.0,16.5,62.0,1012.6,337.7,1.3,1.9,339.2,0.00,9.2,130.0,"21:50:56",1
"21/05/04","22:10",0.0,16.7,61.9,1012.3,322.7,1.2,1.7,328.2,0.00,9.4,130.0,"22:04:48",1
"21/05/04","22:20",0.0,16.2,63.4,1012.3,276.7,0.5,1.4,321.2,0.00,9.3,130.0,"22:10:08",1
"21/05/04","22:30",0.0,16.1,64.0,1012.3,314.7,0.6,1.7,335.5,0.00,9.3,130.0,"22:29:20",1
"21/05/04","22:40",0.0,15.8,66.6,1011.9,329.1,1.7,2.4,326.3,0.00,9.6,130.0,"22:31:04",1
"21/05/04","22:50",0.0,15.7,67.0,1011.9,337.5,1.1,2.2,336.9,0.00,9.6,130.0,"22:45:20",1
"21/05/04","23:00",0.0,15.5,67.5,1012.1,308.1,0.7,1.2,313.5,0.00,9.6,130.0,"22:57:44",1
"21/05/04","23:10",0.0,15.3,67.8,1012.1,300.1,1.2,1.6,317.0,0.00,9.4,130.0,"23:04:16",1
"21/05/04","23:20",0.0,15.3,67.8,1011.9,335.1,1.1,1.8,338.3,0.00,9.4,130.0,"23:13:44",1
"21/05/04","23:30",0.0,15.2,68.0,1012.1,325.3,1.2,1.7,339.1,0.00,9.4,130.0,"23:22:00",1
"21/05/04","23:40",0.0,15.1,68.6,1011.9,310.6,1.2,2.1,316.4,0.00,9.4,130.0,"23:39:04",1
"21/05/04","23:50",0.0,15.1,69.2,1012.1,322.7,1.3,1.7,334.8,0.00,9.5,130.0,"23:46:24",1
"21/05/04","24:00",0.0,15.0,69.8,1011.9,309.7,1.2,2.0,329.4,0.00,9.6,130.0,"23:58:48",1
